Weather History for Madison, WI

Change the Weather History Date:

Tuesday, March 12, 2013

  Actual Average Record
Temperature  
Mean Temperature 29 °F 32 °F  
Max Temperature 33 °F 41 °F 75 °F (1990)
Min Temperature 24 °F 23 °F -7 °F (1948)
Degree Days  
Heating Degree Days 36 33  
Month to date heating degree days 486 419  
Since 1 July heating degree days 5644 5905  
Cooling Degree Days 0 0  
Month to date cooling degree days 0 0  
Year to date cooling degree days 0 0  
Moisture  
Dew Point 22 °F    
Average Humidity 74    
Maximum Humidity 85    
Minimum Humidity 63    
Precipitation  
Precipitation 0.01 in 0.06 in 0.81 in (1923)
Month to date precipitation 1.91 0.73  
Year to date precipitation 7.19 3.41  
Snow  
Snow 0.70 in 0.20 in 12.90 in (1923)
Month to date snowfall 8.1 3.3  
Since 1 July snowfall 63.2 44.4  
Snow Depth 6.00 in    
Sea Level Pressure  
Sea Level Pressure 29.88 in    
Wind  
Wind Speed 8 mph (WNW)    
Max Wind Speed 30 mph    
Max Gust Speed 23 mph    
Visibility 6 miles    
Events Snow    
T = Trace of Precipitation, MM = Missing Value Source: NWS Daily Summary

Daily Weather History Graph

Daily Weather History Graph

Search for Another Location

Airport:

Trip Planner

Search our weather history database for the weather conditions in past years. The results will help you decide how hot, cold, wet, or windy it might be!

Date:

Astronomy

Mar. 12, 2013 Rise Set
Actual Time 7:14 AM CDT 7:00 PM CDT
Civil Twilight 6:45 AM CDT 7:28 PM CDT
Nautical Twilight 6:13 AM CDT 8:01 PM CDT
Astronomical Twilight 5:39 AM CDT 8:35 PM CDT
Moon 7:18 AM CDT (3/12) 8:18 PM CDT (3/12)
Length of Visible Light 12h 42m
Length of Day
11h 46m
New Moon, 1% of the Moon is Illuminated
Mar 12
New Moon
Mar 19
First Quarter
Mar 27
Full
Apr 2
Last Quarter
Apr 10
New

Hourly Weather History & Observations

Time (CDT) Temp. Windchill Dew Point Humidity Pressure Visibility Wind Dir Wind Speed Gust Speed Precip Events Conditions
12:25 AM 30.2 °F 21.3 °F 23.0 °F 75% 29.76 in 10.0 mi NW 10.4 mph - N/A   Overcast
12:53 AM 30.0 °F 23.2 °F 24.1 °F 79% 29.80 in 10.0 mi NW 6.9 mph - N/A   Overcast
1:04 AM 30.2 °F 22.6 °F 23.0 °F 75% 29.77 in 10.0 mi NW 8.1 mph - N/A   Overcast
1:53 AM 28.9 °F 21.1 °F 24.1 °F 82% 29.82 in 10.0 mi WNW 8.1 mph - N/A   Overcast
2:53 AM 28.9 °F 21.9 °F 23.0 °F 78% 29.82 in 5.0 mi West 6.9 mph - 0.00 in Snow Light Snow
3:53 AM 28.0 °F 24.2 °F 24.1 °F 85% 29.83 in 4.0 mi West 3.5 mph - 0.00 in Snow Light Snow
4:26 AM 28.4 °F 21.2 °F 24.8 °F 86% 29.81 in 1.8 mi West 6.9 mph - 0.00 in Snow Light Snow
4:53 AM 28.0 °F 24.2 °F 25.0 °F 88% 29.84 in 2.5 mi Variable 3.5 mph - 0.01 in Snow Light Snow
5:00 AM 28.4 °F 23.3 °F 24.8 °F 86% 29.81 in 4.0 mi West 4.6 mph - 0.00 in Snow Light Snow
5:10 AM 28.4 °F 22.2 °F 24.8 °F 86% 29.82 in 6.0 mi West 5.8 mph - 0.00 in   Overcast
5:36 AM 28.4 °F 21.2 °F 23.0 °F 80% 29.82 in 10.0 mi West 6.9 mph - 0.00 in   Overcast
5:53 AM 28.0 °F 21.7 °F 23.0 °F 81% 29.85 in 10.0 mi Variable 5.8 mph - 0.00 in   Overcast
6:53 AM 27.0 °F 20.5 °F 21.0 °F 78% 29.86 in 10.0 mi West 5.8 mph - N/A   Mostly Cloudy
7:53 AM 26.1 °F 19.4 °F 19.9 °F 78% 29.87 in 10.0 mi West 5.8 mph - N/A   Mostly Cloudy
8:53 AM 26.1 °F 18.4 °F 19.9 °F 78% 29.88 in 10.0 mi Variable 6.9 mph - N/A   Mostly Cloudy
8:58 AM 24.8 °F 16.1 °F 19.4 °F 80% 29.85 in 10.0 mi WSW 8.1 mph - N/A   Mostly Cloudy
9:09 AM 26.6 °F 19.1 °F 19.4 °F 74% 29.85 in 10.0 mi Variable 6.9 mph - N/A   Mostly Cloudy
9:20 AM 26.6 °F 17.5 °F 17.6 °F 69% 29.85 in 10.0 mi West 9.2 mph - N/A   Mostly Cloudy
9:53 AM 27.0 °F 18.7 °F 18.0 °F 69% 29.89 in 10.0 mi West 8.1 mph - N/A   Mostly Cloudy
10:53 AM 28.0 °F 21.7 °F 17.1 °F 63% 29.89 in 10.0 mi WNW 5.8 mph - N/A   Mostly Cloudy
11:53 AM 28.9 °F 20.4 °F 19.0 °F 67% 29.90 in 10.0 mi West 9.2 mph - N/A   Mostly Cloudy
12:53 PM 30.9 °F 22.8 °F 21.0 °F 67% 29.90 in 8.0 mi West 9.2 mph - 0.00 in Snow Light Snow
1:53 PM 32.0 °F 24.2 °F 21.9 °F 66% 29.89 in 8.0 mi West 9.2 mph - 0.00 in Snow Light Snow
2:35 PM 30.2 °F 23.4 °F 23.0 °F 75% 29.85 in 3.0 mi West 6.9 mph - 0.00 in Snow Light Snow
2:53 PM 30.9 °F 23.5 °F 24.1 °F 76% 29.88 in 3.0 mi West 8.1 mph - 0.00 in Snow Light Snow
3:12 PM 32.0 °F 23.6 °F 23.0 °F 69% 29.85 in 10.0 mi West 10.4 mph - 0.00 in   Overcast
3:25 PM 32.0 °F 26.4 °F 23.0 °F 69% 29.85 in 10.0 mi West 5.8 mph 16.1 mph 0.00 in   Overcast
3:45 PM 30.2 °F 21.3 °F 24.8 °F 80% 29.85 in 1.8 mi WNW 10.4 mph 18.4 mph 0.00 in Snow Light Snow
3:53 PM 30.0 °F 21.7 °F 24.1 °F 79% 29.88 in 1.0 mi NW 9.2 mph 17.3 mph 0.00 in Snow Light Snow
3:56 PM - - - N/A% - 3.7 mi WNW 9.2 mph - N/A   Unknown
4:03 PM 30.2 °F 23.4 °F 24.8 °F 80% 29.86 in 1.0 mi WNW 6.9 mph - 0.00 in Snow Light Snow
4:22 PM 30.2 °F 22.6 °F 24.8 °F 80% 29.86 in 1.5 mi WNW 8.1 mph - 0.00 in Snow Light Snow
4:32 PM 30.2 °F 21.9 °F 24.8 °F 80% 29.87 in 2.0 mi WNW 9.2 mph - 0.00 in Snow Light Snow
4:39 PM 28.4 °F 19.1 °F 24.8 °F 86% 29.87 in 1.0 mi NW 10.4 mph 18.4 mph 0.00 in Snow Light Snow
4:53 PM 28.9 °F 19.8 °F 24.1 °F 82% 29.91 in 2.0 mi NW 10.4 mph - 0.00 in Snow Light Snow
5:00 PM 30.2 °F 21.9 °F 24.8 °F 80% 29.87 in 4.0 mi NW 9.2 mph - 0.00 in Snow Light Snow
5:53 PM 28.0 °F 17.5 °F 21.0 °F 75% 29.93 in 3.0 mi WNW 12.7 mph 23.0 mph 0.00 in Snow Light Snow
6:28 PM 28.4 °F 19.1 °F 21.2 °F 74% 29.91 in 1.8 mi WNW 10.4 mph 18.4 mph 0.00 in Snow Light Snow
6:32 PM 28.4 °F 18.5 °F 21.2 °F 74% 29.91 in 2.5 mi WNW 11.5 mph 18.4 mph 0.00 in Snow Light Snow
6:35 PM 28.4 °F 19.7 °F 21.2 °F 74% 29.91 in 3.0 mi WNW 9.2 mph - 0.00 in Snow Light Snow
6:41 PM 28.4 °F 20.4 °F 21.2 °F 74% 29.91 in 2.0 mi WNW 8.1 mph - 0.00 in Snow Light Snow
6:48 PM 26.6 °F 17.5 °F 23.0 °F 86% 29.92 in 1.0 mi WNW 9.2 mph - 0.00 in Snow Light Snow
6:53 PM 27.0 °F 18.7 °F 23.0 °F 85% 29.96 in 2.0 mi WNW 8.1 mph - 0.00 in Snow Light Snow
7:14 PM 26.6 °F 20.0 °F 21.2 °F 80% 29.93 in 8.0 mi WNW 5.8 mph - 0.00 in   Overcast
7:37 PM 26.6 °F 21.2 °F 23.0 °F 86% 29.94 in 1.0 mi WNW 4.6 mph - 0.00 in Snow Light Snow
7:42 PM 26.6 °F 19.1 °F 23.0 °F 86% 29.94 in 0.8 mi Variable 6.9 mph - 0.00 in Snow Light Snow
7:49 PM 26.6 °F 17.5 °F 23.0 °F 86% 29.94 in 0.8 mi WNW 9.2 mph 16.1 mph 0.00 in Snow Light Snow
7:53 PM 27.0 °F 19.5 °F 23.0 °F 85% 29.98 in 1.5 mi WNW 6.9 mph - 0.00 in Snow Light Snow
7:55 PM 26.6 °F 19.1 °F 23.0 °F 86% 29.94 in 3.0 mi WNW 6.9 mph - 0.00 in Snow Light Snow
8:05 PM 26.6 °F 19.1 °F 21.2 °F 80% 29.95 in 3.0 mi WNW 6.9 mph - 0.00 in   Haze
8:53 PM 26.1 °F 15.0 °F 21.0 °F 81% 30.00 in 3.0 mi WNW 12.7 mph 19.6 mph 0.00 in Snow Light Snow
9:53 PM 26.1 °F 19.4 °F 19.9 °F 78% 30.01 in 10.0 mi WNW 5.8 mph - 0.00 in   Overcast
10:53 PM 26.1 °F 16.8 °F 18.0 °F 71% 30.02 in 10.0 mi WNW 9.2 mph - N/A   Overcast
11:53 PM 26.1 °F 16.2 °F 16.0 °F 66% 30.04 in 10.0 mi NW 10.4 mph 18.4 mph 0.00 in Snow Light Snow